Temperature
-3 -2 -3 -3 -3 -4 -4 -3 -2 -2 -2 -1 -2 -3 -3 -3 -3 -3 -3 -3 -3 -3 -3 -3 -4 -4 -4 -3 -4 -4 -4 -4 -4 -4 -5 -5 -5 -5 -5 -5 -5 -5 -5 -5
-4 -3 -4 -3 -3 -3 -3 -3 -3 -3 -3 -3 -3 -4 -4 -4 -4 -4 -4 -4 -4 -4 -4 -4 -4 -4 -4 -4 -4 -4 -4 -5 -5 -5 -5 -5 -5 -5 -5 -5 -5 -5 -5 -5
-3 -4 -4 -3 -3 -4 -4 -5 -4 -3 -3 -4 -5 -5 -5 -5 -5 -5 -5 -5 -5 -5 -5 -5 -5 -5 -5 -5 -5 -5 -5 -5 -5 -6 -6 -6 -6 -6 -6 -6 -6 -6 -6 -6
-4 -4 -2 -1 -4 -4 -4 -5 -5 -5 -5 -5 -5 -5 -5 -4 -4 -5 -5 -5 -5 -5 -5 -5 -5 -5 -5 -5 -6 -6 -6 -6 -6 -6 -6 -6 -6 -6 -6 -6 -6 -6 -6 -6
-4 -4 -4 -3 -4 -5 -5 -5 -6 -6 -6 -6 -6 -6 -5 -4 -4 -5 -5 -5 -6 -5 -5 -5 -5 -6 -6 -6 -6 -6 -6 -7 -7 -7 -7 -7 -7 -7 -7 -7 -7 -7 -7 -7
-5 -4 -3 -2 -5 -5 -5 -4 -5 -6 -6 -6 -7 -6 -5 -5 -5 -5 -6 -6 -6 -6 -6 -6 -6 -6 -6 -7 -7 -7 -7 -7 -7 -7 -7 -7 -7 -7 -7 -7 -7 -7 -7 -7
-6 -5 -4 -5 -6 -5 -4 -3 -5 -6 -6 -6 -8 -7 -6 -6 -6 -6 -6 -6 -6 -7 -6 -6 -7 -7 -7 -7 -7 -7 -8 -8 -8 -8 -8 -8 -8 -8 -8 -8 -7 -7 -8 -7
-6 -6 -4 -6 -7 -6 -5 -5 -5 -6 -6 -7 -7 -7 -7 -7 -7 -7 -7 -7 -7 -7 -7 -7 -7 -8 -8 -8 -8 -8 -8 -8 -8 -8 -8 -8 -8 -8 -8 -8 -8 -8 -8 -8
-6 -4 -5 -6 -6 -6 -5 -6 -6 -6 -6 -7 -7 -7 -7 -7 -7 -7 -7 -7 -7 -8 -8 -8 -8 -8 -8 -8 -8 -8 -8 -9 -9 -9 -9 -9 -9 -8 -8 -8 -9 -8 -8 -8
-8 -7 -7 -7 -6 -6 -6 -6 -6 -7 -7 -7 -8 -8 -8 -8 -8 -8 -8 -8 -8 -8 -8 -8 -8 -8 -9 -9 -9 -9 -9 -9 -9 -9 -9 -9 -9 -9 -9 -9 -9 -9 -9 -9
-8 -8 -8 -7 -7 -6 -6 -7 -7 -7 -7 -8 -8 -8 -8 -8 -8 -8 -8 -8 -8 -9 -9 -9 -9 -9 -9 -9 -9 -9 -9 -10 -10 -10 -10 -10 -10 -9 -9 -9 -9 -9 -9 -9
-7 -7 -8 -7 -7 -7 -7 -7 -7 -8 -8 -8 -8 -8 -9 -9 -9 -9 -9 -9 -9 -9 -9 -9 -9 -9 -9 -10 -10 -10 -10 -10 -10 -11 -11 -11 -10 -10 -10 -10 -10 -10 -10 -10
-7 -7 -7 -7 -8 -8 -8 -8 -8 -8 -8 -8 -9 -9 -9 -9 -9 -9 -9 -9 -9 -9 -10 -10 -10 -10 -10 -10 -10 -10 -10 -11 -11 -11 -11 -11 -11 -11 -10 -10 -10 -10 -10 -10
-8 -8 -8 -8 -8 -8 -8 -9 -9 -9 -9 -9 -9 -10 -10 -10 -10 -9 -9 -10 -10 -10 -10 -10 -10 -10 -10 -10 -11 -11 -11 -11 -11 -11 -11 -11 -11 -11 -11 -11 -11 -11 -10 -10
-8 -8 -8 -9 -9 -9 -9 -9 -9 -9 -9 -10 -10 -10 -10 -10 -10 -10 -10 -10 -10 -10 -10 -10 -11 -11 -11 -11 -11 -11 -11 -11 -12 -12 -12 -12 -12 -12 -12 -12 -12 -11 -11 -11
-9 -9 -9 -9 -9 -9 -9 -9 -9 -10 -10 -10 -10 -10 -10 -10 -10 -10 -10 -10 -10 -11 -11 -11 -11 -11 -11 -11 -11 -12 -12 -12 -12 -12 -12 -12 -12 -12 -12 -12 -12 -12 -12 -12
-10 -10 -10 -10 -10 -10 -10 -10 -10 -10 -10 -10 -11 -11 -11 -11 -11 -11 -11 -11 -11 -11 -11 -11 -12 -12 -12 -12 -12 -12 -12 -12 -12 -12 -12 -12 -13 -13 -13 -13 -13 -12 -12 -12
-10 -10 -10 -10 -10 -10 -10 -10 -10 -11 -11 -11 -11 -11 -11 -11 -11 -11 -11 -11 -11 -11 -11 -12 -12 -12 -12 -12 -12 -12 -12 -12 -13 -13 -13 -13 -13 -13 -13 -13 -13 -13 -13 -13
-10 -10 -10 -10 -10 -11 -11 -11 -11 -11 -11 -11 -11 -11 -11 -12 -12 -11 -12 -12 -12 -12 -12 -12 -12 -12 -12 -12 -12 -13 -13 -13 -13 -13 -13 -13 -13 -13 -13 -13 -13 -13 -13 -13
-10 -10 -10 -11 -11 -11 -11 -11 -11 -11 -11 -11 -12 -12 -12 -12 -12 -12 -12 -12 -12 -12 -12 -12 -12 -13 -13 -13 -13 -13 -13 -13 -13 -13 -13 -13 -14 -14 -13 -13 -13 -13 -13 -13
-11 -11 -11 -11 -11 -11 -12 -12 -12 -12 -12 -12 -12 -12 -12 -12 -12 -12 -12 -12 -12 -13 -13 -13 -13 -13 -13 -13 -13 -13 -13 -14 -14 -14 -14 -14 -14 -14 -14 -14 -14 -14 -14 -14
-11 -12 -12 -12 -12 -12 -12 -12 -12 -12 -12 -12 -12 -12 -13 -13 -13 -13 -13 -13 -13 -13 -13 -13 -13 -13 -13 -13 -13 -14 -14 -14 -14 -14 -14 -14 -14 -14 -14 -14 -14 -14 -14 -14
-12 -12 -12 -12 -12 -12 -12 -12 -12 -12 -12 -13 -13 -13 -13 -13 -13 -13 -13 -13 -13 -13 -13 -13 -13 -14 -14 -14 -14 -14 -14 -14 -14 -14 -14 -14 -14 -14 -14 -14 -14 -14 -14 -14
-12 -12 -13 -13 -13 -13 -13 -13 -13 -13 -13 -13 -13 -13 -13 -13 -13 -13 -14 -14 -14 -14 -14 -14 -14 -14 -14 -14 -14 -14 -14 -15 -15 -15 -15 -15 -15 -15 -15 -15 -15 -15 -15 -15
-13 -13 -13 -13 -13 -13 -13 -13 -13 -13 -13 -13 -13 -14 -14 -14 -14 -14 -14 -14 -14 -14 -14 -14 -14 -14 -14 -14 -14 -15 -15 -15 -15 -15 -15 -15 -15 -15 -15 -15 -15 -15 -15 -15
-13 -13 -14 -14 -14 -14 -14 -14 -14 -14 -14 -14 -14 -14 -14 -14 -14 -14 -14 -14 -14 -14 -14 -14 -14 -15 -15 -15 -15 -15 -15 -15 -15 -15 -15 -15 -15 -15 -15 -15 -15 -15 -15 -15
-14 -14 -14 -14 -14 -14 -14 -14 -14 -14 -14 -14 -14 -14 -14 -14 -14 -14 -14 -14 -14 -15 -15 -15 -15 -15 -15 -15 -15 -15 -15 -15 -16 -16 -16 -16 -16 -16 -16 -16 -16 -15 -15 -15
Wind_Speed
9 7 5 8 9 9 11 11 11 13 12 14 10 9 8 8 8 8 8 7 7 6 6 5 4 4 4 4 3 3 4 4 5 4 4 4 5 5 5 6 6 6 7 7
6 5 6 9 12 12 13 11 12 14 16 11 9 6 7 8 8 8 9 9 8 7 6 6 5 5 4 4 3 3 4 4 4 3 4 4 4 5 6 6 6 6 7 7
5 3 4 9 9 10 7 7 9 13 12 6 7 8 8 8 8 8 9 9 8 8 7 6 5 5 4 4 3 2 3 3 3 4 4 4 5 5 6 6 6 6 7 7
3 2 8 7 2 5 6 7 8 8 7 7 8 9 8 7 6 9 9 8 8 7 7 5 4 3 3 2 2 2 2 3 3 4 4 4 4 5 6 5 6 7 7 7
2 4 9 7 2 3 4 7 5 7 9 8 7 7 6 3 4 6 7 7 7 6 5 4 3 2 1 1 1 2 3 4 4 3 4 4 5 6 5 5 6 6 7 7
3 4 7 6 1 0 1 5 2 3 7 7 5 6 7 6 7 7 6 5 4 4 4 3 2 0 0 1 2 3 4 4 4 3 4 5 5 5 5 5 6 6 6 6
6 7 9 5 1 1 2 5 3 3 5 5 4 6 7 8 8 6 5 5 4 3 3 3 2 1 1 2 3 3 3 4 3 3 4 4 4 4 4 5 4 5 6 6
5 6 9 1 2 4 5 3 3 4 5 5 6 7 7 7 7 6 6 5 3 3 4 4 2 1 1 3 3 3 3 3 3 3 3 3 3 4 3 3 4 4 4 5
8 7 3 2 3 4 3 4 4 4 5 5 6 6 7 6 6 5 5 4 3 2 4 4 3 2 2 3 3 3 3 3 4 4 4 4 3 3 3 3 3 4 4 4
5 7 6 5 5 5 4 5 6 5 5 4 6 7 7 6 5 5 4 4 3 2 3 4 4 3 3 3 3 2 3 3 3 3 4 4 4 3 3 3 3 4 4 4
6 6 6 5 5 6 6 5 5 5 5 5 5 6 5 5 5 4 4 3 2 2 3 4 3 3 4 3 3 3 3 3 3 3 3 4 4 4 4 4 5 5 5 5
6 4 4 6 5 4 4 5 5 5 6 5 4 5 5 5 4 3 3 3 3 3 3 3 3 4 4 3 3 3 3 3 3 3 3 3 3 4 6 5 6 7 7 6
5 5 5 6 5 4 3 5 5 4 5 5 4 3 4 4 4 3 3 3 3 3 3 2 3 3 4 4 3 3 3 3 2 3 3 3 3 3 4 5 6 6 6 6
4 3 4 4 5 5 4 4 4 4 4 4 4 4 3 3 4 4 4 3 3 3 3 2 3 4 4 4 3 3 3 3 3 2 2 2 3 3 3 3 4 4 5 6
5 4 4 4 4 4 4 3 4 5 5 5 4 4 4 4 4 4 4 3 3 3 3 3 3 4 4 4 3 3 3 2 2 2 2 2 3 3 3 3 3 3 3 4
5 4 3 3 5 5 5 4 4 5 5 5 5 5 4 3 3 4 4 3 3 3 3 3 4 4 4 3 3 3 3 5 4 3 2 2 3 3 3 3 3 3 3 3
3 4 4 5 5 5 5 4 3 4 4 4 5 5 4 4 4 4 4 4 3 3 3 3 4 4 4 3 2 2 2 4 6 4 3 3 3 3 3 3 3 3 3 4
3 4 4 4 4 4 5 4 4 4 4 4 4 4 4 4 4 4 4 4 4 4 4 4 4 3 3 3 2 2 2 2 3 3 3 3 3 3 3 3 3 3 3 4
3 3 3 3 3 3 3 4 4 4 4 3 3 4 4 4 4 4 3 3 3 4 5 5 6 4 3 4 3 1 2 2 3 3 3 5 5 3 3 3 3 4 3 3
5 4 4 4 4 3 3 4 4 4 4 3 3 3 4 5 4 3 3 3 3 3 5 5 4 3 3 4 4 1 1 2 2 3 3 3 3 4 4 4 4 4 4 3
5 5 4 4 4 4 3 3 3 4 4 3 3 3 4 4 3 3 3 4 5 5 5 6 4 3 3 4 4 1 1 2 2 2 3 3 3 4 4 4 4 4 4 4
5 4 4 4 4 4 4 3 3 3 4 3 3 3 3 4 4 3 3 3 4 7 4 3 3 5 6 5 2 1 2 2 2 2 3 3 3 4 4 4 4 4 4 4
5 4 4 4 4 4 4 4 3 3 3 4 4 3 3 3 3 3 4 4 3 6 4 3 5 8 8 3 2 2 2 3 3 3 3 3 3 4 4 4 4 4 4 4
5 5 4 4 3 3 4 5 4 3 3 3 3 3 3 3 3 2 3 6 7 7 4 5 8 8 7 3 2 2 3 3 3 3 3 3 3 3 4 4 4 5 5 5
5 4 4 4 4 4 4 5 4 3 3 3 3 3 2 2 2 4 3 4 6 6 4 6 8 8 5 3 3 3 3 3 4 3 3 3 4 4 4 4 4 5 5 5
5 4 4 4 4 4 3 3 3 3 3 4 4 3 3 2 2 3 3 3 4 6 4 4 4 5 3 3 3 4 4 5 5 4 4 4 4 4 4 5 5 5 5 5
5 4 4 4 4 3 3 3 3 3 3 3 4 3 3 3 3 3 3 3 4 4 3 3 3 3 3 3 4 4 4 4 4 4 4 4 4 4 5 5 5 5 5 6
Wind_Direction
259 267 254 248 245 221 219 226 234 252 255 270 281 291 295 298 303 305 302 301 296 291 289 288 285 281 277 263 253 240 228 234 240 245 242 243 235 231 233 232 234 233 232 235
275 257 256 263 252 233 234 241 247 264 272 272 288 301 299 298 300 300 300 300 298 297 293 286 281 279 281 271 260 246 229 238 246 247 246 245 246 237 233 234 235 234 235 236
271 302 311 267 238 210 219 222 219 244 260 295 309 305 296 292 291 291 297 299 297 295 285 277 273 270 271 266 261 251 250 245 247 244 246 248 251 249 238 236 238 238 239 239
279 345 250 250 164 195 221 247 231 248 275 294 288 295 289 277 275 294 300 298 297 295 293 289 282 281 278 272 262 261 266 262 252 252 257 259 255 253 250 245 238 239 244 242
221 262 275 290 249 178 211 274 237 240 274 294 309 323 308 291 301 292 294 293 291 290 290 289 286 275 269 280 282 277 277 276 265 257 263 262 259 257 255 254 250 243 245 241
198 234 255 263 274 282 106 278 271 250 275 296 332 319 304 327 324 314 314 311 310 311 317 315 311 307 359 293 287 281 283 285 279 269 262 262 263 265 266 260 257 249 252 245
218 238 263 270 288 105 194 269 295 271 281 285 266 259 291 316 318 316 318 319 326 334 335 322 321 33 340 305 290 293 301 302 297 291 283 276 277 276 266 263 259 247 251 255
193 223 255 265 125 194 242 300 298 293 289 280 275 287 301 310 312 319 325 329 335 343 337 336 350 33 335 309 311 319 321 320 317 316 311 306 297 292 277 257 251 245 243 255
205 226 271 201 226 261 277 285 290 289 291 286 288 294 304 308 310 315 319 323 334 338 335 341 351 7 336 317 322 330 341 336 331 332 331 323 311 297 283 256 244 250 237 243
252 262 270 264 275 292 290 280 287 289 292 289 285 294 302 306 310 316 320 324 336 345 337 334 346 351 327 324 342 351 348 341 337 341 337 334 324 304 278 254 247 245 245 248
263 284 304 289 283 290 297 302 306 307 299 290 287 295 298 304 308 309 318 326 332 327 321 323 342 344 336 343 0 4 355 349 346 344 336 333 327 311 295 269 254 249 241 240
267 281 271 289 305 311 309 310 308 309 315 315 298 293 303 306 308 313 317 324 330 331 328 328 339 340 339 345 2 8 358 350 346 342 338 338 337 335 325 310 298 289 283 275
266 290 281 289 314 327 315 316 319 316 306 313 322 312 308 310 319 328 331 333 330 323 320 328 343 342 342 351 360 4 349 339 341 343 342 341 341 338 333 337 332 319 302 296
295 310 302 304 305 320 321 322 331 336 334 329 325 328 326 327 333 337 332 328 329 335 340 348 350 340 340 353 2 360 346 333 342 341 337 338 339 335 326 326 329 331 326 312
318 305 275 297 319 328 335 344 350 346 348 347 342 337 335 333 327 322 323 332 348 351 348 352 349 336 344 356 360 352 346 341 344 346 345 347 347 348 342 336 335 332 334 334
324 332 322 319 321 330 339 342 340 333 336 336 339 337 332 324 320 324 335 348 354 338 331 336 332 329 345 356 1 357 348 341 350 351 350 353 352 349 345 342 341 341 338 331
328 323 320 318 318 323 326 323 319 317 325 328 327 329 335 341 344 344 345 348 341 324 323 328 325 335 349 352 1 357 349 343 343 347 346 342 342 337 332 332 333 335 331 330
298 293 295 294 303 317 327 333 330 325 318 315 324 335 339 339 329 323 327 337 348 346 340 334 331 345 349 347 357 353 347 342 343 340 339 337 336 328 327 329 332 331 331 334
341 333 330 327 322 317 319 322 322 322 320 323 331 329 323 320 316 318 330 340 339 333 331 333 336 350 342 335 345 354 346 342 339 335 333 328 331 334 335 333 329 328 326 330
352 348 345 343 341 332 321 319 324 326 324 324 329 331 328 324 325 329 332 318 300 299 312 324 331 331 326 326 338 350 335 326 322 323 325 323 322 324 326 324 323 323 323 321
344 343 343 339 336 334 324 317 320 320 322 325 318 309 309 316 327 328 325 315 314 315 319 325 336 326 322 324 329 331 315 312 311 310 312 314 315 317 318 318 318 316 315 315
334 334 333 331 330 327 325 322 315 313 319 319 315 314 320 324 327 324 303 286 304 317 327 319 318 321 327 328 329 319 314 313 311 310 307 306 307 307 309 311 310 309 310 311
326 326 326 326 320 316 321 322 315 311 310 310 312 313 309 306 309 310 311 312 311 316 326 313 319 325 332 345 347 330 322 317 313 309 304 302 301 300 300 303 303 303 304 305
326 327 326 326 325 326 322 318 315 313 308 306 305 302 301 309 313 294 287 310 321 321 324 317 325 328 337 358 346 333 323 316 312 307 304 301 298 296 295 296 298 299 299 300
327 327 329 328 324 317 312 317 324 325 325 323 321 319 310 290 289 307 312 314 318 325 327 323 326 332 345 340 329 320 314 308 305 304 299 301 301 299 297 296 295 296 297 296
330 325 318 311 304 307 314 319 321 323 326 325 326 323 320 318 310 313 317 319 318 324 329 324 326 328 329 321 314 311 308 310 317 319 313 309 306 303 302 300 296 295 294 294
332 328 323 323 324 322 320 318 315 316 315 311 312 318 325 330 330 330 328 326 325 326 323 321 323 322 319 315 312 310 308 308 307 307 307 306 304 301 302 300 298 295 294 294
Height
1488 1486 1487 1486 1484 1487 1486 1480 1476 1465 1464 1455 1453 1453 1451 1449 1446 1444 1442 1440 1438 1437 1435 1434 1433 1432 1432 1431 1432 1432 1432 1433 1433 1434 1435 1436 1437 1439 1440 1441 1442 1443 1444 1445
1489 1485 1486 1482 1476 1477 1477 1475 1471 1465 1459 1452 1451 1450 1448 1446 1443 1441 1438 1436 1434 1432 1431 1429 1428 1428 1427 1427 1427 1428 1428 1428 1428 1429 1430 1431 1432 1433 1434 1435 1436 1437 1437 1438
1485 1485 1482 1474 1465 1468 1469 1466 1465 1461 1453 1450 1449 1447 1445 1443 1440 1437 1435 1432 1430 1428 1426 1425 1424 1424 1423 1423 1423 1423 1422 1423 1423 1424 1425 1426 1426 1427 1427 1428 1430 1430 1431 1432
1488 1487 1477 1459 1459 1459 1461 1459 1458 1454 1451 1449 1447 1444 1441 1439 1437 1434 1431 1428 1426 1424 1422 1421 1420 1420 1419 1419 1419 1419 1419 1419 1420 1420 1420 1420 1421 1421 1422 1423 1423 1424 1425 1425
1489 1486 1473 1461 1458 1459 1460 1455 1452 1451 1449 1447 1444 1441 1437 1435 1433 1431 1428 1425 1423 1421 1418 1417 1416 1415 1415 1415 1415 1415 1415 1415 1415 1415 1415 1415 1415 1416 1416 1417 1417 1418 1418 1419
1488 1483 1471 1457 1457 1455 1457 1454 1448 1448 1446 1445 1443 1443 1436 1433 1430 1427 1424 1422 1419 1417 1415 1413 1412 1412 1412 1412 1412 1412 1412 1411 1411 1411 1411 1410 1410 1410 1410 1411 1411 1412 1413 1414
1485 1480 1466 1458 1456 1456 1459 1450 1447 1445 1444 1443 1442 1441 1436 1431 1428 1425 1422 1420 1417 1415 1413 1411 1410 1410 1410 1410 1410 1410 1409 1408 1407 1407 1406 1406 1405 1405 1405 1405 1406 1407 1408 1409
1482 1479 1466 1456 1456 1456 1451 1448 1445 1443 1442 1440 1438 1435 1432 1429 1426 1422 1419 1417 1415 1413 1411 1410 1409 1409 1408 1408 1407 1407 1406 1405 1403 1402 1402 1401 1400 1400 1400 1401 1401 1402 1402 1403
1468 1461 1454 1452 1451 1449 1448 1446 1444 1442 1439 1437 1434 1432 1429 1426 1423 1420 1418 1416 1414 1412 1410 1409 1408 1408 1406 1406 1405 1404 1402 1401 1400 1398 1398 1397 1397 1396 1396 1397 1397 1397 1397 1398
1463 1454 1452 1450 1448 1446 1445 1444 1441 1440 1437 1435 1431 1428 1426 1423 1420 1418 1416 1414 1412 1410 1409 1408 1407 1406 1405 1404 1403 1401 1399 1398 1397 1395 1394 1394 1394 1393 1393 1392 1392 1392 1393 1393
1457 1452 1449 1446 1445 1444 1442 1440 1438 1437 1435 1432 1429 1426 1424 1421 1418 1416 1414 1412 1411 1409 1408 1407 1406 1404 1404 1402 1401 1399 1398 1396 1395 1394 1393 1391 1391 1390 1389 1389 1389 1389 1389 1389
1453 1450 1449 1445 1443 1442 1440 1438 1436 1434 1431 1430 1428 1424 1422 1419 1417 1415 1413 1412 1410 1409 1407 1406 1405 1403 1403 1401 1400 1398 1396 1395 1394 1392 1391 1390 1388 1387 1386 1387 1386 1386 1386 1387
1450 1447 1445 1443 1441 1440 1438 1436 1434 1432 1430 1427 1425 1423 1420 1417 1416 1414 1413 1411 1409 1408 1407 1405 1404 1403 1402 1400 1399 1397 1396 1394 1393 1392 1390 1389 1387 1385 1384 1384 1384 1383 1383 1383
1447 1445 1442 1440 1439 1437 1435 1433 1432 1430 1428 1426 1423 1421 1419 1417 1415 1413 1412 1411 1409 1407 1406 1405 1403 1402 1401 1400 1398 1397 1395 1394 1392 1391 1390 1388 1387 1385 1383 1382 1381 1380 1380 1380
1444 1443 1441 1439 1437 1435 1434 1432 1430 1428 1426 1424 1422 1420 1418 1416 1414 1413 1412 1410 1409 1407 1406 1404 1403 1402 1401 1399 1398 1396 1395 1393 1392 1390 1389 1388 1386 1384 1383 1381 1380 1378 1377 1377
1442 1440 1439 1437 1435 1433 1432 1430 1428 1426 1425 1423 1421 1419 1417 1416 1414 1413 1411 1410 1408 1407 1406 1404 1403 1402 1401 1399 1397 1396 1394 1393 1391 1390 1388 1387 1385 1384 1382 1381 1379 1378 1376 1376
1441 1439 1437 1435 1433 1432 1430 1429 1427 1425 1424 1422 1420 1418 1417 1415 1413 1412 1411 1410 1408 1407 1406 1405 1403 1402 1400 1399 1397 1395 1394 1392 1391 1389 1388 1386 1385 1384 1382 1381 1379 1377 1376 1376
1441 1439 1437 1435 1433 1431 1429 1428 1426 1425 1423 1421 1420 1418 1416 1414 1412 1411 1410 1409 1408 1407 1406 1404 1403 1401 1400 1398 1396 1395 1393 1391 1390 1389 1387 1386 1385 1384 1382 1380 1379 1377 1375 1374
1439 1438 1436 1434 1432 1430 1429 1427 1425 1424 1422 1420 1418 1416 1415 1414 1412 1411 1409 1408 1406 1405 1405 1403 1402 1400 1399 1397 1396 1394 1392 1391 1390 1388 1387 1385 1384 1383 1381 1380 1378 1376 1374 1373
1438 1437 1435 1433 1431 1429 1428 1426 1424 1423 1421 1419 1417 1415 1414 1413 1411 1410 1408 1407 1406 1405 1404 1403 1401 1399 1398 1396 1395 1393 1391 1390 1389 1387 1386 1384 1383 1382 1380 1379 1377 1375 1373 1372
1437 1435 1433 1431 1430 1428 1427 1425 1423 1421 1420 1418 1416 1415 1413 1412 1410 1409 1407 1406 1405 1404 1403 1401 1400 1398 1397 1395 1394 1392 1391 1389 1388 1386 1385 1383 1382 1380 1379 1377 1376 1374 1372 1371
1436 1434 1432 1430 1428 1427 1425 1424 1422 1420 1419 1417 1415 1413 1412 1410 1409 1407 1406 1406 1404 1403 1401 1400 1399 1397 1396 1394 1392 1391 1389 1388 1386 1385 1383 1382 1381 1379 1377 1376 1374 1372 1371 1369
1436 1433 1431 1429 1427 1425 1424 1422 1421 1419 1417 1415 1414 1412 1411 1409 1408 1406 1405 1404 1403 1401 1400 1398 1397 1396 1395 1393 1391 1389 1388 1386 1385 1383 1382 1380 1379 1377 1375 1374 1372 1371 1369 1367
1435 1432 1430 1428 1426 1424 1422 1421 1419 1418 1416 1414 1413 1411 1410 1408 1407 1406 1404 1403 1402 1400 1398 1397 1396 1394 1393 1391 1389 1387 1386 1384 1383 1381 1380 1378 1376 1375 1373 1372 1370 1368 1367 1365
1433 1431 1429 1427 1425 1422 1421 1419 1417 1416 1414 1413 1411 1410 1408 1407 1405 1404 1403 1401 1400 1398 1397 1395 1394 1392 1391 1389 1387 1385 1384 1382 1381 1379 1377 1376 1374 1373 1371 1369 1368 1366 1364 1362
1431 1429 1427 1425 1424 1422 1420 1418 1416 1414 1413 1411 1410 1409 1407 1406 1404 1402 1401 1399 1398 1396 1395 1393 1392 1390 1389 1387 1385 1384 1382 1380 1379 1377 1375 1374 1372 1370 1369 1367 1365 1364 1362 1360
1430 1428 1425 1423 1422 1420 1419 1417 1415 1413 1411 1410 1408 1407 1405 1404 1402 1401 1399 1397 1396 1394 1393 1391 1390 1388 1387 1385 1383 1382 1380 1378 1377 1375 1373 1371 1370 1368 1366 1365 1363 1361 1359 1358